Regional Weather Roundup
Issued by NWS

Home | Current Version | Previous Version | Graphics & Text | Print | Product List | Glossary Off
Versions: 1 2 3 4 5 6 7 8 9 10 11 12 13 14 15 16 17 18 19 20 21 22 23 24 25 26 27 28 29 30 31 32 33 34 35 36 37 38 39 40 41 42 43 44 45 46 47 48 49 50

000
ASUS43 KDTX 280410
RWRMI
MICHIGAN HOURLY REGIONAL WEATHER ROUNDUP
NATIONAL WEATHER SERVICE DETROIT/PONTIAC MI
1200 AM EDT MON MAY 28 2018

NOTE: "FAIR" INDICATES FEW OR NO CLOUDS BELOW 12,000 FEET WITH NO
SIGNIFICANT WEATHER AND/OR OBSTRUCTION TO VISIBILITY.

MIZ047>049-052>055-059>063-066>070-074>076-081>083-280500-
SOUTHEAST LOWER MICHIGAN

CITY           SKY/WX    TMP DP  RH WIND       PRES   REMARKS
ADRIAN         FAIR      74  67  78 CALM      29.94R
ALMA           FOG       65  65 100 W7        29.93R VSB 1/2
ANN ARBOR      FAIR      67  66  97 CALM      29.93R
BAD AXE        FAIR      67  62  85 N9        29.92S
CARO             N/A     65  63  95 CALM      29.91R FOG
DETROIT CITY   FAIR      77  66  68 W6        29.92R
DETROIT        FAIR      75  67  76 SW3       29.92R
FLINT          FAIR      69  64  84 S3        29.92R
GROSSE ILE     FAIR      69  66  90 S5        29.91S
HILLSDALE      FAIR      70  63  78 CALM      29.95R
HOWELL         FAIR      70  64  81 CALM      29.94R

CITY           SKY/WX    TMP DP  RH WIND       PRES   REMARKS
JACKSON        FAIR      72  65  78 CALM      29.94R
LAMBERTVILLE   FAIR      74  69  84 CALM      29.92S
LANSING        FAIR      72  64  76 CALM      29.93R
LAPEER         FAIR      68  65  90 CALM      29.92S
MASON          FAIR      71  67  85 CALM      29.94R
MONROE         FAIR      73  70  92 CALM      29.92R
MT. CLEMENS    CLOUDY    75  71  86 S5          N/A
PONTIAC        MOCLDY    77  66  68 W5        29.92R
PORT HOPE        N/A     61  58  90 CALM      29.90R
PORT HURON     FAIR      75  64  69 CALM      29.91S
TRI CITIES     FAIR      72  67  84 W5        29.91S
MIDLAND        FAIR      65  65 100 CALM      29.91R
TROY           FAIR      80  65  60 SW6       29.94R
SAGINAW HB     FAIR      70  63  78 CALM      29.90S
$$
MIZ043>046-050>051-056>058-064>065-071>073-077>080-280500-
SOUTHWEST LOWER MICHIGAN

CITY           SKY/WX    TMP DP  RH WIND       PRES   REMARKS
BATTLE CREEK   FAIR      71  62  73 CALM      29.94R
BENTON HARBOR  FAIR      68  65  90 CALM      29.91R
BIG RAPIDS     FAIR      66  60  81 CALM      29.93S
COLDWATER      FAIR      71  65  79 CALM      29.94R
FREMONT        FAIR      69  64  84 CALM      29.92S
HOLLAND        FAIR      69  63  81 CALM      29.92R
GRAND RAPIDS   FAIR      72  63  73 CALM      29.92R
IONIA          FAIR      72  62  69 CALM      29.92R
KALAMAZOO      FAIR      71  62  73 CALM      29.93R
LUDINGTON      FAIR      63  62  95 CALM      29.91S
MARSHALL       FAIR      69  62  78 CALM      29.94R
MOUNT PLEASANT FAIR      66  66  98 CALM      29.92R
MUSKEGON       FAIR      67  61  81 CALM      29.91S
SOUTH HAVEN    FAIR      68  65  89 CALM      29.92R
$$
MIZ016>042-280500-
NORTHERN LOWER MICHIGAN

CITY           SKY/WX    TMP DP  RH WIND       PRES   REMARKS
ALPENA         FAIR      62  61  96 CALM      29.90S
BEAVER ISLAND  FAIR      59  55  88 W5        29.92R
BELLAIRE       FAIR      62  60  94 CALM      29.91S
CADILLAC       FAIR      61  60  95 CALM      29.95R
CHARLEVOIX     FAIR      55  55 100 CALM      29.93F
FRANKFORT      FAIR      61  60  98 CALM      29.91F
GAYLORD        FAIR      65  62  90 SW3       29.94R
GRAYLING       FAIR      60  59  96 CALM      29.92S
HARBOR SPRINGS FAIR      55  55  99 CALM      29.91R
HOUGHTON LAKE  FAIR      62  59  90 NE3       29.94S
MANISTEE       FAIR      60  59  96 E3        29.91S
OSCODA         FAIR      63  60  90 CALM      29.90R
PELLSTON       FAIR      63  60  90 NW7       29.91R
ROGERS CITY    FAIR      63  59  86 CALM      29.90S
TRAVERSE CITY  FAIR      66  61  84 CALM      29.90R
$$
MIZ007>008-015-280500-
EASTERN UPPER MICHIGAN

CITY           SKY/WX    TMP DP  RH WIND       PRES   REMARKS
KINROSS        FAIR      62  59  90 N3        29.91R
MACKINAC ISLAN FAIR      61  57  86 W8        29.90R
NEWBERRY       FAIR      64  63  97 CALM      29.91R
S. S. MARIE    FAIR      59  55  87 NW3       29.89R
MUNISING         N/A     51  50  96 CALM      29.90R
$$
MIZ004>006-011>014-085-280500-
CENTRAL UPPER MICHIGAN

CITY           SKY/WX    TMP DP  RH WIND       PRES   REMARKS
MANISTIQUE     FAIR      56  54  94 CALM      29.91R
ESCANABA       FAIR      60  59  96 CALM      29.90S
MENOMINEE      FAIR      62  59  90 CALM      29.90R
SAWYER-GWINN   FAIR      66  58  75 S3        29.92S
$$
MIZ001>003-009>011-084-280500-
WESTERN UPPER MICHIGAN

CITY           SKY/WX    TMP DP  RH WIND       PRES   REMARKS
IRON MOUNTAIN  FAIR      70  62  76 CALM      29.90R
HOUGHTON       FAIR      58  54  86 MISG      29.88S
COPPER HARBOR    N/A     65  57  75 SW9       29.86R
IRONWOOD       FAIR      66  62  87 E5        29.88F
$$

ABBREVIATIONS USED IN REMARKS
   TC - TEMPERATURE IN CELSIUS
  WCI - WIND CHILL INDEX
   HX - HEAT INDEX
  VSB - VISIBILITY





USA.gov is the U.S. government's official web portal to all federal, state and local government web resources and services.